Mount Holly, NJ

5:28 PM EST on December 10, 2019 (GMT -0500)
South Jersey Regional

Weather History for KVAY - October, 2019

Change the Weather History Date:

Saturday, October 19, 2019

  Actual Average (KPNE) Record (KPNE)
Temperature  
Mean Temperature 48 °F -  
Max Temperature 62 °F 61 °F 87 °F (2016)
Min Temperature 34 °F 42 °F 30 °F (2015)
Degree Days  
Heating Degree Days 17    
Moisture  
Dew Point 38 °F    
Average Humidity 74    
Maximum Humidity 97    
Minimum Humidity 39    
Precipitation  
Precipitation 0.00 in - - ()
Sea Level Pressure  
Sea Level Pressure 30.06 in    
Wind  
Wind Speed 1 mph (WSW)    
Max Wind Speed 7 mph    
Max Gust Speed -    
Visibility 10 miles    
Events      
Averages and records for this station are not official NWS values.
T = Trace of Precipitation, MM = Missing Value Source: NWS Daily Summary

Daily Weather History Graph

Daily Weather History Graph

Search for Another Location

Airport or City:

Astronomy

Oct. 19, 2019 Rise Set
Actual Time 7:13 AM EDT 6:14 PM EDT
Civil Twilight 6:46 AM EDT 6:41 PM EDT
Nautical Twilight 6:14 AM EDT 7:13 PM EDT
Astronomical Twilight 5:43 AM EDT 7:44 PM EDT
Moon 10:21 PM EDT (10/19) 12:43 PM EDT (10/19)
Length of Visible Light 11h 55m
Length of Day
11h 00m
Waning Gibbous, 70% of the Moon is Illuminated
Oct 19
Waning Gibbous
Oct 21
Last Quarter
Oct 27
New
Nov 4
First Quarter
Nov 12
Full

Hourly Weather History & Observations

Time (EDT) Temp. Dew Point Humidity Pressure Visibility Wind Dir Wind Speed Gust Speed Precip Events Conditions
12:54 AM 37.9 °F 37.0 °F 97% 30.05 in 10.0 mi Calm Calm - N/A   Clear
1:54 AM 37.9 °F 35.1 °F 89% 30.05 in 10.0 mi Calm Calm - N/A   Clear
2:54 AM 36.0 °F 35.1 °F 97% 30.04 in 10.0 mi Calm Calm - N/A   Clear
3:54 AM 35.1 °F 33.1 °F 92% 30.04 in 10.0 mi Calm Calm - N/A   Clear
4:54 AM 35.1 °F 33.1 °F 92% 30.05 in 10.0 mi Calm Calm - N/A   Clear
5:54 AM 35.1 °F 33.1 °F 92% 30.08 in 9.0 mi Calm Calm - N/A   Clear
6:54 AM 34.0 °F 32.0 °F 92% 30.10 in 9.0 mi Calm Calm - N/A   Clear
7:54 AM 35.1 °F 34.0 °F 96% 30.11 in 9.0 mi Calm Calm - N/A   Clear
8:54 AM 46.0 °F 39.9 °F 79% 30.12 in 10.0 mi Calm Calm - N/A   Clear
9:54 AM 51.1 °F 39.0 °F 63% 30.12 in 10.0 mi West 3.5 mph - N/A   Clear
10:54 AM 53.1 °F 37.9 °F 57% 30.12 in 10.0 mi Variable 3.5 mph - N/A   Clear
11:54 AM 55.0 °F 37.9 °F 53% 30.10 in 10.0 mi Calm Calm - N/A   Clear
12:54 PM 57.9 °F 37.0 °F 46% 30.09 in 10.0 mi Variable 4.6 mph - N/A   Clear
1:54 PM 59.0 °F 36.0 °F 42% 30.06 in 10.0 mi WSW 6.9 mph - N/A   Clear
2:54 PM 61.0 °F 36.0 °F 39% 30.05 in 10.0 mi Variable 4.6 mph - N/A   Clear
3:54 PM 62.1 °F 37.0 °F 39% 30.04 in 10.0 mi Variable 3.5 mph - N/A   Clear
4:54 PM 60.1 °F 36.0 °F 41% 30.03 in 10.0 mi Calm Calm - N/A   Clear
5:54 PM 55.0 °F 43.0 °F 64% 30.03 in 10.0 mi Calm Calm - N/A   Clear
6:54 PM 50.0 °F 43.0 °F 77% 30.03 in 10.0 mi Calm Calm - N/A   Clear
7:54 PM 48.9 °F 43.0 °F 80% 30.04 in 10.0 mi Calm Calm - N/A   Clear
8:54 PM 46.9 °F 42.1 °F 83% 30.04 in 10.0 mi Calm Calm - N/A   Unknown
9:54 PM 46.9 °F 42.1 °F 83% 30.05 in 10.0 mi Calm Calm - N/A   Clear
10:54 PM 46.0 °F 42.1 °F 86% 30.04 in 10.0 mi Calm Calm - N/A   Clear
11:54 PM 46.0 °F 43.0 °F 89% 30.04 in 10.0 mi Calm Calm - N/A   Clear